Time,TemperatureF,DewpointF,PressureIn,WindDirection,WindDirectionDegrees,WindSpeedMPH,WindSpeedGustMPH,Humidity,HourlyPrecipIn,Conditions,Clouds,dailyrainin,SoftwareType,DateUTC
2013-04-05 01:27:00,35.2,20.2,30.21,SE,139,1.0,4.0,54,0.00,,,0.00,Wunderground v.1.15,2013-04-05 07:27:00,
2013-04-05 01:32:00,35.4,19.9,30.20,SE,133,2.0,3.0,53,0.00,,,0.00,Wunderground v.1.15,2013-04-05 07:32:00,
2013-04-05 01:42:00,35.8,20.3,30.20,ESE,117,2.0,3.0,53,0.00,,,0.00,Wunderground v.1.15,2013-04-05 07:42:00,
2013-04-05 01:48:00,36.0,20.5,30.20,ESE,117,1.0,3.0,53,0.00,,,0.00,Wunderground v.1.15,2013-04-05 07:48:00,
2013-04-05 01:56:00,36.3,20.3,30.19,ESE,116,2.0,3.0,52,0.00,,,0.00,Wunderground v.1.15,2013-04-05 07:56:00,
2013-04-05 02:13:00,36.4,20.9,30.17,ESE,111,2.0,3.0,53,0.00,,,0.00,Wunderground v.1.15,2013-04-05 08:13:00,
2013-04-05 02:41:00,36.3,20.3,30.15,SE,137,6.0,7.0,52,0.00,,,0.00,Wunderground v.1.15,2013-04-05 08:41:00,
2013-04-05 02:57:00,36.1,21.0,30.14,SE,139,7.0,9.0,54,0.00,,,0.00,Wunderground v.1.15,2013-04-05 08:57:00,
2013-04-05 03:04:00,36.0,20.9,30.14,SE,140,7.0,12.0,54,0.00,,,0.00,Wunderground v.1.15,2013-04-05 09:04:00,
2013-04-05 03:10:00,35.8,21.2,30.13,East,92,7.0,8.0,55,0.00,,,0.00,Wunderground v.1.15,2013-04-05 09:10:00,
2013-04-05 03:18:00,35.5,20.9,30.13,East,101,6.0,8.0,55,0.00,,,0.00,Wunderground v.1.15,2013-04-05 09:18:00,
2013-04-05 03:25:00,35.3,21.2,30.13,ESE,112,6.0,8.0,56,0.00,,,0.00,Wunderground v.1.15,2013-04-05 09:25:00,
2013-04-05 03:34:00,35.1,21.4,30.12,SE,145,6.0,9.0,57,0.00,,,0.00,Wunderground v.1.15,2013-04-05 09:34:00,
2013-04-05 03:46:00,34.8,21.5,30.12,ESE,112,7.0,9.0,58,0.00,,,0.00,Wunderground v.1.15,2013-04-05 09:46:00,
2013-04-05 03:52:00,34.6,21.3,30.12,ESE,108,6.0,9.0,58,0.00,,,0.00,Wunderground v.1.15,2013-04-05 09:52:00,
2013-04-05 04:32:00,34.3,22.2,30.10,SE,132,6.0,9.0,61,0.00,,,0.00,Wunderground v.1.15,2013-04-05 10:32:00,
2013-04-05 04:38:00,34.6,22.1,30.10,SE,133,7.0,10.0,60,0.00,,,0.00,Wunderground v.1.15,2013-04-05 10:38:00,
2013-04-05 04:44:00,34.7,22.2,30.11,SE,129,9.0,9.0,60,0.00,,,0.00,Wunderground v.1.15,2013-04-05 10:44:00,
2013-04-05 04:52:00,34.6,22.5,30.10,ESE,113,5.0,7.0,61,0.00,,,0.00,Wunderground v.1.15,2013-04-05 10:52:00,
2013-04-05 05:02:00,34.5,22.8,30.09,SE,129,6.0,9.0,62,0.00,,,0.00,Wunderground v.1.15,2013-04-05 11:02:00,
2013-04-05 05:07:00,34.6,22.9,30.08,East,100,7.0,9.0,62,0.00,,,0.00,Wunderground v.1.15,2013-04-05 11:07:00,
2013-04-05 05:13:00,34.8,22.7,30.08,SE,142,7.0,12.0,61,0.00,,,0.00,Wunderground v.1.15,2013-04-05 11:13:00,
2013-04-05 05:20:00,35.0,22.9,30.08,SE,138,7.0,9.0,61,0.00,,,0.00,Wunderground v.1.15,2013-04-05 11:20:00,
2013-04-05 05:33:00,34.9,22.8,30.08,SE,137,3.0,4.0,61,0.00,,,0.00,Wunderground v.1.15,2013-04-05 11:33:00,
2013-04-05 05:39:00,34.8,22.7,30.08,SE,137,1.0,1.0,61,0.00,,,0.00,Wunderground v.1.15,2013-04-05 11:39:00,
2013-04-05 05:45:00,34.6,22.9,30.08,SE,137,0.0,1.0,62,0.00,,,0.00,Wunderground v.1.15,2013-04-05 11:45:00,
2013-04-05 06:49:00,32.0,23.3,30.06,East,90,2.0,3.0,70,0.00,,,0.00,Wunderground v.1.15,2013-04-05 12:49:00,
2013-04-05 11:48:00,49.6,29.6,29.96,SSE,151,2.0,6.0,46,0.00,,,0.00,Wunderground v.1.15,2013-04-05 17:48:00,
2013-04-05 11:54:00,49.8,29.8,29.96,ENE,75,2.0,5.0,46,0.00,,,0.00,Wunderground v.1.15,2013-04-05 17:54:00,
2013-04-05 12:03:00,50.5,29.9,29.95,East,83,3.0,3.0,45,0.00,,,0.00,Wunderground v.1.15,2013-04-05 18:03:00,
2013-04-05 12:09:00,51.3,30.7,29.94,ENE,64,3.0,5.0,45,0.00,,,0.00,Wunderground v.1.15,2013-04-05 18:09:00,
2013-04-05 12:15:00,51.9,30.6,29.94,ENE,78,4.0,6.0,44,0.00,,,0.00,Wunderground v.1.15,2013-04-05 18:15:00,
2013-04-05 12:21:00,52.1,30.8,29.93,ENE,62,4.0,8.0,44,0.00,,,0.00,Wunderground v.1.15,2013-04-05 18:21:00,
2013-04-05 12:32:00,52.7,31.4,29.93,ENE,76,5.0,10.0,44,0.00,,,0.00,Wunderground v.1.15,2013-04-05 18:32:00,
2013-04-05 12:37:00,52.7,30.8,29.92,NE,36,6.0,10.0,43,0.00,,,0.00,Wunderground v.1.15,2013-04-05 18:37:00,
2013-04-05 12:48:00,53.4,30.9,29.92,ESE,105,6.0,7.0,42,0.00,,,0.00,Wunderground v.1.15,2013-04-05 18:48:00,
2013-04-05 12:56:00,53.9,31.3,29.91,NNE,32,6.0,9.0,42,0.00,,,0.00,Wunderground v.1.15,2013-04-05 18:56:00,
2013-04-05 13:07:00,54.9,32.2,29.91,ENE,61,4.0,8.0,42,0.00,,,0.00,Wunderground v.1.15,2013-04-05 19:07:00,
2013-04-05 13:15:00,55.4,32.1,29.91,East,96,5.0,8.0,41,0.00,,,0.00,Wunderground v.1.15,2013-04-05 19:15:00,
2013-04-05 13:25:00,55.2,31.3,29.90,NNE,30,4.0,7.0,40,0.00,,,0.00,Wunderground v.1.15,2013-04-05 19:25:00,
2013-04-05 13:32:00,55.1,31.2,29.90,NE,42,5.0,7.0,40,0.00,,,0.00,Wunderground v.1.15,2013-04-05 19:32:00,
2013-04-05 14:53:00,58.2,32.7,29.86,ENE,78,5.0,5.0,38,0.00,,,0.00,Wunderground v.1.15,2013-04-05 20:53:00,
2013-04-05 15:07:00,58.4,32.2,29.86,ENE,64,5.0,9.0,37,0.00,,,0.00,Wunderground v.1.15,2013-04-05 21:07:00,
2013-04-05 17:43:00,58.2,33.3,29.82,North,8,5.0,6.0,39,0.00,,,0.00,Wunderground v.1.15,2013-04-05 23:43:00,
2013-04-05 17:50:00,58.3,33.4,29.82,NNE,17,5.0,5.0,39,0.00,,,0.00,Wunderground v.1.15,2013-04-05 23:50:00,
2013-04-05 17:58:00,58.2,33.3,29.81,NE,56,4.0,7.0,39,0.00,,,0.00,Wunderground v.1.15,2013-04-05 23:58:00,
2013-04-05 18:05:00,57.8,33.6,29.83,ENE,78,5.0,7.0,40,0.00,,,0.00,Wunderground v.1.15,2013-04-06 00:05:00,
2013-04-05 18:14:00,57.8,34.2,29.82,East,85,2.0,7.0,41,0.00,,,0.00,Wunderground v.1.15,2013-04-06 00:14:00,
2013-04-05 18:19:00,56.6,38.2,29.83,NNE,15,4.0,4.0,50,0.00,,,0.01,Wunderground v.1.15,2013-04-06 00:19:00,
2013-04-05 18:27:00,55.3,35.9,29.82,North,4,6.0,10.0,48,0.00,,,0.01,Wunderground v.1.15,2013-04-06 00:27:00,
2013-04-05 18:35:00,55.0,35.7,29.83,North,354,7.0,8.0,48,0.00,,,0.01,Wunderground v.1.15,2013-04-06 00:35:00,
2013-04-05 18:40:00,54.9,35.0,29.83,North,354,7.0,8.0,47,0.00,,,0.01,Wunderground v.1.15,2013-04-06 00:40:00,
2013-04-05 18:46:00,54.9,34.5,29.83,North,354,7.0,9.0,46,0.00,,,0.01,Wunderground v.1.15,2013-04-06 00:46:00,
2013-04-05 21:08:00,49.0,36.5,29.92,NW,317,10.0,12.0,62,0.00,,,0.01,Wunderground v.1.15,2013-04-06 03:08:00,
2013-04-05 21:14:00,48.5,37.3,29.92,NNW,342,9.0,10.0,65,0.00,,,0.01,Wunderground v.1.15,2013-04-06 03:14:00,
2013-04-05 21:19:00,48.1,37.3,29.92,NNW,330,9.0,9.0,66,0.00,,,0.01,Wunderground v.1.15,2013-04-06 03:19:00,
2013-04-05 21:27:00,47.8,37.7,29.92,NW,320,9.0,11.0,68,0.00,,,0.01,Wunderground v.1.15,2013-04-06 03:27:00,
2013-04-05 21:32:00,47.9,37.8,29.93,NNW,332,9.0,14.0,68,0.00,,,0.01,Wunderground v.1.15,2013-04-06 03:32:00,
2013-04-05 21:50:00,47.5,38.6,29.93,NW,318,9.0,11.0,71,0.00,,,0.01,Wunderground v.1.15,2013-04-06 03:50:00,
2013-04-05 23:48:00,50.5,39.6,29.94,WNW,299,12.0,15.0,66,0.00,,,0.01,Wunderground v.1.15,2013-04-06 05:48:00,